Regional Weather Roundup
Issued by NWS Northern Indiana

Home | Current Version | Previous Version | Graphics & Text | Print | Product List | Glossary On
Versions: 1 2 3 4 5 6 7 8 9 10 11 12 13 14 15 16 17 18 19 20 21 22 23 24 25 26 27 28 29 30 31 32 33 34 35 36 37 38 39 40 41 42 43 44 45 46 47 48 49 50
000
ASUS43 KIWX 090900
RWRIWX

KIWX WEATHER ROUNDUP
NATIONAL WEATHER SERVICE NORTHERN INDIANA
400 AM EST FRI DEC 09 2016

NOTE: "FAIR" INDICATES FEW OR NO CLOUDS BELOW 12,000 FEET WITH NO
SIGNIFICANT WEATHER AND/OR OBSTRUCTIONS TO VISIBILITY.

* THESE STATIONS ARE NOT UNDER NWS QUALITY CONTROL. THEY ALSO MAY NOT
  REPORT WEATHER SUCH AS PRECIPITATION OR FOG.

INZ001>027-091000-
NORTHERN INDIANA

CITY           SKY/WX    TMP DP  RH WIND       PRES   REMARKS
GARY*          CLOUDY    24  19  78 W12       30.46R WCI  13
LAPORTE*       FLURRIES  22  17  82 W12G17    30.41S WCI  11
KNOX*          CLOUDY    23   3  42 W13G20    30.44R WCI  11
SOUTH BEND     LGT SNOW  21  19  92 W16       30.38S FOG     WCI   7
GOSHEN         PTCLDY    22  16  78 W14       30.38R WCI   9
MONTICELLO*    FLURRIES  22  13  67 W10       30.47R WCI  12
WARSAW*        PTCLDY    21  14  73 W14       30.39R WCI   8
ANGOLA*        CLOUDY    21  18  86 W12       30.33R WCI   9
FORT WAYNE     PTCLDY    21  15  78 W13       30.40R WCI   9
PERU/GRISSOM   FLURRIES  21  17  86 W14       30.42S WCI   8

$$
INZ028>050-091000-
CENTRAL INDIANA

CITY           SKY/WX    TMP DP  RH WIND       PRES   REMARKS
LAFAYETTE      CLOUDY    21  16  81 W9        30.49S WCI  11
KOKOMO*        FLURRIES  21  18  88 MISG      30.45S
MUNCIE*        FLURRIES  21  17  84 W10       30.43S WCI  10
INDIANAPOLIS   FLURRIES  21  16  81 W10       30.49R WCI  10

$$
MIZ043>046-050>051-056>058-064>065-071>073-077>080-091000-
SOUTHWEST LOWER MICHIGAN

CITY           SKY/WX    TMP DP  RH WIND       PRES   REMARKS
BATTLE CREEK   LGT SNOW  27  26  96 W7        30.31R VSB 1   WCI  19
BENTON HARBOR  CLOUDY    31  22  69 W15G22    30.36R WCI  20
COLDWATER*     FLURRIES  24  21  90 SW12G18   30.32R WCI  13
HILLSDALE*     LGT SNOW  23  21  93 W9        30.29R VSB 1   WCI  13
HOLLAND        CLOUDY    30  24  78 N5        30.32R WCI  25
GRAND RAPIDS   LGT SNOW  28  23  81 NW10      30.31S WCI  19
KALAMAZOO      LGT SNOW  28  24  85 W7        30.32R FOG     WCI  21
STURGIS*       CLOUDY    21  18  88 W10       30.34R WCI  10
THREE RIVERS*  LGT SNOW  22  20  91 SW7       30.35R WCI  14

$$
OHZ001>008-015>018-024>025-091000-
NORTHWEST OHIO

CITY           SKY/WX    TMP DP  RH WIND       PRES   REMARKS
DEFIANCE       CLOUDY    23  15  71 SW9       30.37R WCI  13
FINDLAY        CLOUDY    22  15  75 W18G26    30.35S WCI   7
TOLEDO EXPRESS CLOUDY    23  19  85 W17G25    30.33R WCI   9
TOLEDO METCALF CLOUDY    24  19  81 W12       30.35R WCI  13
LIMA           CLOUDY    21  16  81 W20       30.38R WCI   6

$$
AND FOR LAKE MICHIGAN COASTAL AND OPEN LAKE BUOY OBSERVATIONS

STATION/POSITION TEMP    WIND        PRES    VSBY  WAVE
                 AIR SEA DIR/SP/G                  HT/PER
                 (F)     (DEG/KT/KT) (MB)    (MI)  (FT/S)
CALUMET HARBOR    22     260/  6/ 12 1030.3R
BURNS HARBOR      26     280/ 17/ 23 1030.5R
SAINT JOSEPH      32     290/ 18/ 22 1028.4

$$
&&




USA.gov is the U.S. government's official web portal to all federal, state and local government web resources and services.